Hourly Data Report for September 14, 2017

All times are specified in Local Standard Time (LST). Add 1 hour to adjust for Daylight Saving Time where and when it is observed.

EAST POINT (AUT)
PRINCE EDWARD ISLAND

46°27'36.000" N
61°59'18.000" W
7.70 m
8300418
71412
WEP

Download Data

Hourly Data (September 2017)
Hourly Data Report for September 14, 2017
Temp Definition
°C
Dew Point Temp Definition
°C
Rel Hum Definition
%
Wind Dir Definition
10's deg

Wind Spd Definition
km/h
Visibility Definition
km
Stn Press Definition
kPa
Hmdx Definition


Wind Chill Definition


Weather Definition


TIME
00:00 18.5 12.7 69 23 17   100.48     LegendNANA
01:00 17.2 13.8 81 21 18   100.48     LegendNANA
02:00 17.2 13.5 79 21 18   100.49     LegendNANA
03:00 17.1 13.8 81 22 17   100.49     LegendNANA
04:00 17.6 13.6 77 22 20   100.49     LegendNANA
05:00 17.0 13.4 79 22 18   100.53     LegendNANA
06:00 17.0 13.6 80 22 17   100.56     LegendNANA
07:00 18.2 13.8 75 23 18   100.63     LegendNANA
08:00 19.0 13.8 72 22 18   100.67     LegendNANA
09:00 20.9 14.1 65 24 15   100.69     LegendNANA
10:00 22.8 14.3 59 26 12   100.72 26   LegendNANA
11:00 22.2 14.3 61 28 21   100.73 26   LegendNANA
12:00 22.3 14.4 61 29 22   100.72 26   LegendNANA
13:00 21.9 14.4 62 28 16   100.73 26   LegendNANA
14:00 21.4 14.9 67 29 13   100.76 25   LegendNANA
15:00 21.1 14.3 65 29 12   100.77 25   LegendNANA
16:00 20.8 14.3 66 30 9   100.78     LegendNANA
17:00 20.0 14.3 69 34 3   100.82     LegendNANA
18:00 18.3 15.3 82 7 5   100.87     LegendNANA
19:00 17.4 14.9 85 12 6   100.94     LegendNANA
20:00 17.0 14.6 86 14 5   101.00     LegendNANA
21:00 16.7 14.9 89 16 8   101.01     LegendNANA
22:00 16.6 15.0 90 11 3   101.08     LegendNANA
23:00 15.5 14.0 90 28 4   101.12     LegendNANA

Notes on Data Quality.

Legend

  • E = Estimated
  • M = Missing
  • NA = Not Available
  • ‡ = Partner data that is not subject to review by the National Climate Archives
Date modified: